Location: Poprad
(49.0500°N, 20.3000°E)
Time: 09:07:44
(UTC+02:00)

Oscar 11 - Pass Details

Date: 21 April 2024
Orbit: 602 x 614 km, 97.7° (Epoch: 19 May)

Event Time Altitude Azimuth Distance (km) Brightness Sun altitude
Rises 04:21:20 0° 16° (NNE) 2,897 11.4 -11.7°
Reaches altitude 10° 04:23:34 10° 21° (NNE) 1,985 10.5 -11.3°
Maximum altitude 04:27:49 56° 100° (E) 731 7.7 -10.8°
Drops below altitude 10° 04:32:01 10° 180° (S) 1,962 9.3 -10.2°
Sets 04:34:13 0° 184° (S) 2,859 10.1 -9.9°
